Regional Weather Roundup
Issued by NWS

Home | Current Version | Previous Version | Graphics & Text | Print | Product List | Glossary On
Versions: 1 2 3 4 5 6 7 8 9 10 11 12 13 14 15 16 17 18 19 20 21 22 23 24 25 26 27 28 29 30 31 32 33 34 35 36 37 38 39 40 41 42 43 44 45 46 47 48 49 50
000
ASUS43 KLOT 252058
RWRIL

ILLINOIS REGIONAL WEATHER ROUNDUP
NATIONAL WEATHER SERVICE CHICAGO/ROMEOVILLE IL
400 PM CDT FRI JUL 25 2014

NOTE: "FAIR" INDICATES FEW OR NO CLOUDS BELOW 12,000 FEET WITH NO
SIGNIFICANT WEATHER AND/OR OBSTRUCTIONS TO VISIBILITY.

* THESE STATIONS ARE NOT UNDER NWS QUALITY CONTROL. THEY ALSO MAY NOT
  REPORT WEATHER SUCH AS PRECIPITATION OR FOG.

ILZ001-002-007-009-015-016-024-252200-
NORTHWEST ILLINOIS

CITY           SKY/WX    TMP DP  RH WIND       PRES   REMARKS
MOLINE         CLOUDY    75  64  68 S9        29.89R
$$

ILZ003-004-008-010-011-017-018-252200-
NORTH CENTRAL ILLINOIS

CITY           SKY/WX    TMP DP  RH WIND       PRES   REMARKS
ROCKFORD       NOT AVBL
$$

ILZ005-006-012>014-019>023-252200-
NORTHEAST ILLINOIS

CITY           SKY/WX    TMP DP  RH WIND       PRES   REMARKS
CHICAGO-OHARE  CLOUDY    74  56  53 SW13      29.94F
CHICAGO-MIDWAY PTSUNNY   74  59  59 SW13      29.95F
AURORA         CLOUDY    71  59  65 S8        29.96F
WAUKEGAN       CLOUDY    73  57  57 SW13G18   29.93F
DUPAGE AIRPORT CLOUDY    71  60  68 SW9       29.96F
WHEELING       PTSUNNY   75  57  53 SW10G22   29.95F
NORTHERLY ISL    N/A     72  56  57 W8          N/A
$$

LMZ740>746-252200-
SOUTHERN LAKE MICHIGAN

STATION/POSITION SKY/WX   TEMP    WIND        PRES    VSBY  WAVE
                          AIR SEA DIR/SP/G                  HT/PER
                          (F)     (DEG/KT/KT) (MB)    (MI)  (FT/S)
SOUTHERN BUOY              64 62  160/  6/  8 1014.8R         1/ 3
WAUKEGAN HARBOR            72     210/ 13/ 19   N/A
HARRISON CRIB              72     210/ 17/ 22   N/A
BURNHAM HARBOR             73     180/  8/ 15   N/A
CALUMET HARBOR             72     200/ 10/ 14 1013.4F
BURNS HARBOR               73     190/ 13/ 24 1014.9F
MICHIGAN CITY              71     180/ 16/ 22   N/A
MICHIGAN CITY 6N           71 68  220/ 10/ 16   N/A           2/ 3
ST. JOSEPH                 69 65  210/  8/ 10   N/A           2/ 3
$$

ILZ025>027-034>036-040-047-049-050-058-095>099-252200-
WEST-CENTRAL ILLINOIS

CITY           SKY/WX    TMP DP  RH WIND       PRES   REMARKS
$$

ILZ028>032-037-038-041>044-048-051>054-059>061-252200-
CENTRAL ILLINOIS

CITY           SKY/WX    TMP DP  RH WIND       PRES   REMARKS
PEORIA         NOT AVBL
SPRINGFIELD    LGT RAIN  70  63  78 S9G17     29.91F
TAYLORVILLE    NOT AVBL
$$

ILZ033-039-045-046-055>057-062-063-252200-
EAST-CENTRAL ILLINOIS

CITY           SKY/WX    TMP DP  RH WIND       PRES   REMARKS
$$

ILZ079-100>102-252200-
SOUTHWEST ILLINOIS

CITY           SKY/WX    TMP DP  RH WIND       PRES   REMARKS
ALTON          SUNNY     70  68  94 S12G17    29.93F
BELLEVILLE     CLOUDY    68  64  88 E10       29.93F
$$

ILZ064>066-069>071-074>076-080>082-084>086-088>090-092>094-252200-
SOUTH-CENTRAL ILLINOIS

CITY           SKY/WX    TMP DP  RH WIND       PRES   REMARKS
CARBONDALE     CLOUDY    76  62  62 N5        30.09R
$$

ILZ067-068-072-073-078-083-087-091-252200-
SOUTHEAST ILLINOIS

CITY           SKY/WX    TMP DP  RH WIND       PRES   REMARKS
$$

ABBREVIATIONS USED IN REMARKS
   TC - TEMPERATURE IN CELSIUS
  WCI - WIND CHILL INDEX
   HX - HEAT INDEX
  VSB - VISIBILITY
$$




USA.gov is the U.S. government's official web portal to all federal, state and local government web resources and services.